| time (UTC) | temp F | wind direction | speed MPH | gust MPH | rain 1hr in | rain 24hr in | rain mn in | humidity % | barometer mb |
| 20260506134524 | 76 | 192 | 0.0 | 0.0 | 0.00 | 0.00 | 0.00 | 94 | 1010.0 |
| 20260506133024 | 76 | 177 | 0.0 | 0.0 | 0.00 | 0.00 | 0.00 | 94 | 1010.2 |
| 20260506131525 | 75 | 177 | 0.0 | 0.0 | 0.00 | 0.00 | 0.00 | 94 | 1010.1 |
| 20260506130024 | 75 | 177 | 0.0 | 0.0 | 0.00 | 0.00 | 0.00 | 94 | 1009.9 |
| 20260506124521 | 75 | 177 | 0.0 | 0.0 | 0.00 | 0.00 | 0.00 | 94 | 1009.8 |
| 20260506123020 | 75 | 177 | 0.0 | 0.0 | 0.00 | 0.00 | 0.00 | 94 | 1009.7 |
| 20260506121518 | 75 | 177 | 0.0 | 0.0 | 0.00 | 0.00 | 0.00 | 94 | 1009.7 |
| 20260506120018 | 74 | 177 | 0.0 | 0.0 | 0.00 | 0.00 | 0.00 | 94 | 1009.6 |
| 20260506114521 | 74 | 177 | 0.0 | 0.0 | 0.00 | 0.00 | 0.00 | 94 | 1009.4 |
| 20260506113015 | 74 | 177 | 0.0 | 0.0 | 0.00 | 0.00 | 0.00 | 93 | 1009.2 |
| 20260506111514 | 74 | 177 | 0.0 | 0.0 | 0.00 | 0.00 | 0.00 | 93 | 1009.2 |
| 20260506110015 | 74 | 177 | 0.0 | 0.0 | 0.00 | 0.00 | 0.00 | 93 | 1008.8 |
| 20260506104533 | 75 | 177 | 0.0 | 0.0 | 0.00 | 0.00 | 0.00 | 93 | 1008.6 |
| 20260506103012 | 75 | 177 | 0.0 | 0.0 | 0.00 | 0.00 | 0.00 | 92 | 1008.6 |
| 20260506101511 | 75 | 177 | 0.0 | 0.0 | 0.00 | 0.00 | 0.00 | 92 | 1008.6 |
| 20260506100009 | 75 | 180 | 0.0 | 0.0 | 0.00 | 0.00 | 0.00 | 91 | 1008.6 |
| 20260506094509 | 76 | 173 | 0.0 | 1.0 | 0.00 | 0.00 | 0.00 | 91 | 1008.2 |
| 20260506093007 | 76 | 149 | 0.0 | 2.0 | 0.00 | 0.00 | 0.00 | 91 | 1008.2 |
| 20260506091506 | 76 | 149 | 0.0 | 2.0 | 0.00 | 0.00 | 0.00 | 91 | 1008.2 |
| 20260506090005 | 76 | 173 | 0.0 | 2.0 | 0.00 | 0.00 | 0.00 | 91 | 1008.1 |
| 20260506084506 | 76 | 177 | 0.0 | 2.0 | 0.00 | 0.00 | 0.00 | 91 | 1007.9 |
| 20260506083006 | 76 | 129 | 0.0 | 0.0 | 0.00 | 0.00 | 0.00 | 91 | 1008.1 |
| 20260506081501 | 76 | 146 | 0.0 | 2.0 | 0.00 | 0.00 | 0.00 | 91 | 1008.2 |
| 20260506080114 | 76 | 146 | 0.0 | 0.0 | 0.00 | 0.00 | 0.00 | 91 | 1008.5 |
| 20260506073056 | 76 | 110 | 0.0 | 0.0 | 0.00 | 0.00 | 0.00 | 90 | 1008.8 |
| 20260506071615 | 76 | 154 | 0.0 | 0.0 | 0.00 | 0.00 | 0.00 | 90 | 1009.2 |
| 20260506061551 | 77 | 173 | 0.0 | 1.0 | 0.00 | 0.00 | 0.00 | 90 | 1009.2 |
| 20260506044550 | 77 | 164 | 0.0 | 1.0 | 0.00 | 0.00 | 0.00 | 87 | 1009.1 |
| 20260506043052 | 77 | 159 | 0.0 | 2.0 | 0.00 | 0.00 | 0.00 | 87 | 1009.1 |
| 20260506041546 | 78 | 159 | 0.0 | 2.0 | 0.00 | 0.00 | 0.00 | 87 | 1009.3 |
| 20260506040049 | 77 | 148 | 0.0 | 0.0 | 0.00 | 0.00 | 0.00 | 87 | 1009.0 |
| 20260506034543 | 78 | 146 | 0.0 | 0.0 | 0.00 | 0.00 | 0.00 | 86 | 1008.9 |
| 20260506033043 | 78 | 159 | 0.0 | 2.0 | 0.00 | 0.00 | 0.00 | 86 | 1008.7 |
| 20260506031541 | 78 | 164 | 0.0 | 0.0 | 0.00 | 0.00 | 0.00 | 86 | 1008.7 |
| 20260506030041 | 78 | 173 | 0.0 | 0.0 | 0.00 | 0.00 | 0.00 | 86 | 1008.5 |
| 20260506024545 | 78 | 173 | 0.0 | 0.0 | 0.00 | 0.00 | 0.00 | 85 | 1008.3 |
| 20260506023040 | 78 | 149 | 0.0 | 0.0 | 0.00 | 0.00 | 0.00 | 85 | 1008.1 |
| 20260506021552 | 78 | 148 | 0.0 | 2.0 | 0.00 | 0.00 | 0.00 | 84 | 1007.8 |
| 20260506020038 | 0 | 173 | 0.0 | 2.0 | 0.00 | 0.00 | 0.00 | 1007.6 | |
| 20260506014534 | 0 | 128 | 0.0 | 1.0 | 0.00 | 0.00 | 0.00 | 1007.4 | |
| 20260506013031 | 0 | 169 | 0.0 | 1.0 | 0.00 | 0.00 | 0.00 | 1007.2 | |
| 20260506011532 | 0 | 164 | 0.0 | 2.0 | 0.00 | 0.00 | 0.00 | 1007.1 | |
| 20260506010043 | 0 | 155 | 0.0 | 2.0 | 0.00 | 0.00 | 0.00 | 1006.9 | |
| 20260506004530 | 0 | 138 | 0.0 | 2.0 | 0.00 | 0.00 | 0.00 | 1006.6 | |
| 20260506003030 | 0 | 159 | 0.0 | 2.0 | 0.00 | 0.00 | 0.00 | 1006.6 | |
| 20260506001528 | 0 | 178 | 0.0 | 0.0 | 0.00 | 0.00 | 0.00 | 1006.6 | |
| 20260506000025 | 0 | 178 | 0.0 | 3.0 | 0.00 | 0.00 | 0.00 | 1006.5 | |
| 20260505234522 | 0 | 133 | 0.0 | 2.0 | 0.00 | 0.00 | 0.00 | 1006.6 | |
| 20260505233017 | 0 | 192 | 0.0 | 0.0 | 0.00 | 0.00 | 0.00 | 1006.5 | |
| 20260505231523 | 0 | 154 | 0.0 | 0.0 | 0.00 | 0.00 | 0.00 | 1006.6 | |
| 20260505230008 | 0 | 181 | 0.0 | 0.0 | 0.00 | 0.00 | 0.00 | 1006.8 | |
| 20260505224504 | 0 | 177 | 0.0 | 0.0 | 0.00 | 0.00 | 0.00 | 1006.6 | |
| 20260505223113 | 0 | 190 | 0.0 | 2.0 | 0.00 | 0.00 | 0.00 | 1006.5 | |
| 20260505221559 | 0 | 173 | 0.0 | 1.0 | 0.00 | 0.00 | 0.00 | 1006.8 | |
| 20260505220051 | 0 | 154 | 0.0 | 3.0 | 0.00 | 0.00 | 0.00 | 1006.7 | |
| 20260505214555 | 0 | 140 | 0.0 | 1.0 | 0.00 | 0.00 | 0.00 | 1007.1 | |
| 20260505213043 | 0 | 131 | 0.0 | 0.0 | 0.00 | 0.00 | 0.00 | 1007.2 | |
| 20260505211545 | 0 | 215 | 0.0 | 0.0 | 0.00 | 0.00 | 0.00 | 1007.5 | |
| 20260505210033 | 0 | 215 | 0.0 | 2.0 | 0.00 | 0.00 | 0.00 | 1007.6 | |
| 20260505204529 | 0 | 174 | 0.0 | 0.0 | 0.00 | 0.00 | 0.00 | 1007.7 | |
| 20260505203030 | 0 | 204 | 0.0 | 1.0 | 0.00 | 0.00 | 0.00 | 1007.8 | |
| 20260505201520 | 0 | 198 | 0.0 | 2.0 | 0.00 | 0.00 | 0.00 | 1008.0 | |
| 20260505200016 | 0 | 35 | 0.0 | 2.0 | 0.00 | 0.00 | 0.00 | 1008.1 | |
| 20260505194512 | 82 | 195 | 0.0 | 2.0 | 0.00 | 0.00 | 0.00 | 81 | 1008.3 |
| 20260505193011 | 81 | 181 | 0.0 | 2.0 | 0.00 | 0.00 | 0.00 | 83 | 1008.5 |
| 20260505191508 | 80 | 140 | 0.0 | 0.0 | 0.00 | 0.00 | 0.00 | 85 | 1008.6 |
| 20260505190013 | 80 | 164 | 0.0 | 0.0 | 0.00 | 0.00 | 0.00 | 85 | 1008.7 |
| 20260505184512 | 79 | 154 | 0.0 | 2.0 | 0.00 | 0.00 | 0.00 | 84 | 1008.8 |
| 20260505183004 | 79 | 159 | 0.0 | 0.0 | 0.00 | 0.00 | 0.00 | 87 | 1009.0 |
| 20260505181503 | 79 | 188 | 0.0 | 0.0 | 0.00 | 0.00 | 0.00 | 87 | 1009.0 |
| 20260505180001 | 78 | 190 | 0.0 | 2.0 | 0.00 | 0.00 | 0.00 | 87 | 1009.2 |
| 20260505174559 | 77 | 199 | 0.0 | 1.0 | 0.00 | 0.00 | 0.00 | 88 | 1009.3 |
| 20260505173058 | 77 | 150 | 0.0 | 2.0 | 0.00 | 0.00 | 0.00 | 89 | 1009.4 |
| 20260505171559 | 77 | 154 | 0.0 | 0.0 | 0.00 | 0.00 | 0.00 | 88 | 1009.6 |
| 20260505170058 | 77 | 154 | 0.0 | 0.0 | 0.00 | 0.00 | 0.00 | 88 | 1009.4 |
| 20260505164559 | 77 | 154 | 0.0 | 1.0 | 0.00 | 0.00 | 0.00 | 89 | 1009.6 |
| 20260505163054 | 76 | 190 | 0.0 | 1.0 | 0.00 | 0.00 | 0.00 | 89 | 1009.7 |
| 20260505161552 | 76 | 196 | 0.0 | 0.0 | 0.00 | 0.00 | 0.00 | 90 | 1009.6 |
| 20260505153053 | 76 | 154 | 0.0 | 0.0 | 0.00 | 0.00 | 0.00 | 89 | 1009.3 |
| 20260505151550 | 76 | 173 | 0.0 | 0.0 | 0.00 | 0.00 | 0.00 | 89 | 1009.2 |